RYR221 LGAV-LGSK

Flight info

Callsign RYR221
Flight time 0h 24m
Altitude 24000
Route ROPOX M749 SIGFO
Aircraft B738/M-SDE2E3FGHIRWXY/LB1

Departure

Time 2026-04-24 16:40
Airport Athens Eleftherios Venizelos International Airport (LGAV)

Arrival

Time 2026-04-24 17:04
Airport Skiathos Island National Airport (LGSK)
Time Latitude Longitude Altitude Speed Heading
2026-04-24 16:18 37.93509 23.94752 300 ft 0 kts 306°
2026-04-24 16:30 37.93506 23.94758 300 ft 2 kts 304°
2026-04-24 16:31 37.93495 23.94779 302 ft 3 kts 295°
2026-04-24 16:31 37.93488 23.94802 302 ft 3 kts 283°
2026-04-24 16:31 37.93485 23.94827 303 ft 3 kts 266°
2026-04-24 16:31 37.93489 23.94850 302 ft 3 kts 233°
2026-04-24 16:32 37.93494 23.94858 302 ft 1 kts 217°
2026-04-24 16:35 37.93484 23.94851 304 ft 6 kts 205°
2026-04-24 16:36 37.93450 23.94862 301 ft 9 kts 136°
2026-04-24 16:36 37.93411 23.94929 299 ft 8 kts 123°
2026-04-24 16:36 37.93358 23.94986 298 ft 12 kts 176°
2026-04-24 16:36 37.93304 23.94953 300 ft 14 kts 216°
2026-04-24 16:37 37.93217 23.94870 300 ft 17 kts 217°
2026-04-24 16:37 37.93126 23.94784 301 ft 16 kts 217°
2026-04-24 16:37 37.93038 23.94700 299 ft 15 kts 217°
2026-04-24 16:37 37.92953 23.94621 300 ft 15 kts 217°
2026-04-24 16:38 37.92872 23.94544 301 ft 14 kts 217°
2026-04-24 16:38 37.92796 23.94472 302 ft 14 kts 216°
2026-04-24 16:38 37.92723 23.94401 302 ft 13 kts 217°
2026-04-24 16:38 37.92651 23.94334 302 ft 13 kts 217°
2026-04-24 16:39 37.92576 23.94287 303 ft 12 kts 173°
2026-04-24 16:39 37.92527 23.94340 306 ft 7 kts 127°
2026-04-24 16:39 37.92500 23.94386 307 ft 7 kts 126°
2026-04-24 16:39 37.92510 23.94475 309 ft 15 kts 38°
2026-04-24 16:40 37.92703 23.94658 302 ft 70 kts 37°
2026-04-24 16:40 37.93296 23.95223 292 ft 140 kts 37°
2026-04-24 16:40 37.94149 23.96000 855 ft 154 kts 37°
2026-04-24 16:40 37.95032 23.96821 1737 ft 160 kts 38°
2026-04-24 16:41 37.95905 23.97677 2581 ft 158 kts 38°
2026-04-24 16:41 37.96758 23.98525 3380 ft 154 kts 37°
2026-04-24 16:41 37.97632 23.99387 3906 ft 169 kts 34°
2026-04-24 16:41 37.98652 24.00364 4145 ft 196 kts 34°
2026-04-24 16:42 37.99800 24.01467 4325 ft 218 kts 35°
2026-04-24 16:42 38.01092 24.02656 4535 ft 239 kts 27°
2026-04-24 16:42 38.02748 24.03033 4934 ft 252 kts 348°
2026-04-24 16:42 38.04274 24.02046 5795 ft 253 kts 321°
2026-04-24 16:43 38.05429 24.00314 6527 ft 261 kts 307°
2026-04-24 16:43 38.06410 23.98333 7226 ft 268 kts 304°
2026-04-24 16:43 38.07373 23.96282 7980 ft 273 kts 304°
2026-04-24 16:43 38.08362 23.94184 8704 ft 279 kts 304°
2026-04-24 16:44 38.09361 23.92088 9498 ft 283 kts 304°
2026-04-24 16:44 38.10408 23.89919 10194 ft 291 kts 304°
2026-04-24 16:44 38.11491 23.87688 10839 ft 300 kts 305°
2026-04-24 16:44 38.12597 23.85420 11616 ft 304 kts 305°
2026-04-24 16:45 38.13727 23.83107 12400 ft 309 kts 305°
2026-04-24 16:45 38.14853 23.80805 13217 ft 313 kts 305°
2026-04-24 16:45 38.16039 23.78461 13986 ft 317 kts 311°
2026-04-24 16:45 38.17728 23.76691 14711 ft 313 kts 337°
2026-04-24 16:46 38.19789 23.75895 15554 ft 311 kts 354°
2026-04-24 16:46 38.21946 23.75531 15862 ft 313 kts 356°
2026-04-24 16:46 38.24098 23.75241 15994 ft 319 kts 356°
2026-04-24 16:46 38.26401 23.74949 15993 ft 344 kts 356°
2026-04-24 16:47 38.28858 23.74631 15980 ft 366 kts 357°
2026-04-24 16:47 38.31494 23.74282 15512 ft 390 kts 356°
2026-04-24 16:47 38.34199 23.73907 14970 ft 388 kts 356°
2026-04-24 16:47 38.36871 23.73523 14413 ft 383 kts 356°
2026-04-24 16:48 38.39501 23.73139 13847 ft 378 kts 356°
2026-04-24 16:48 38.42095 23.72760 13216 ft 373 kts 356°
2026-04-24 16:48 38.44620 23.72391 12639 ft 368 kts 355°
2026-04-24 16:48 38.47152 23.72021 12077 ft 363 kts 355°
2026-04-24 16:49 38.49658 23.71655 11515 ft 359 kts 355°
2026-04-24 16:49 38.52129 23.71294 10965 ft 355 kts 355°
2026-04-24 16:49 38.54532 23.70942 10858 ft 339 kts 355°
2026-04-24 16:49 38.56838 23.70605 10679 ft 326 kts 355°
2026-04-24 16:50 38.58311 23.70389 10600 ft 318 kts 355°
2026-04-24 16:50 38.61150 23.69973 10413 ft 303 kts 355°
2026-04-24 16:50 38.63207 23.69672 10297 ft 292 kts 355°
2026-04-24 16:50 38.65199 23.69380 10182 ft 283 kts 354°
2026-04-24 16:51 38.67125 23.69098 10072 ft 273 kts 355°
2026-04-24 16:51 38.68998 23.68823 9888 ft 269 kts 355°
2026-04-24 16:51 38.70857 23.68552 9555 ft 267 kts 354°
2026-04-24 16:51 38.72680 23.68284 9328 ft 264 kts 354°
2026-04-24 16:52 38.74507 23.68017 9011 ft 263 kts 354°
2026-04-24 16:52 38.76326 23.67749 8730 ft 262 kts 354°
2026-04-24 16:52 38.78105 23.67488 8477 ft 259 kts 354°
2026-04-24 16:52 38.79899 23.67224 8179 ft 258 kts 354°
2026-04-24 16:53 38.81677 23.66962 7912 ft 255 kts 354°
2026-04-24 16:53 38.83445 23.66702 7632 ft 254 kts 354°
2026-04-24 16:53 38.85177 23.66447 7364 ft 252 kts 354°
2026-04-24 16:53 38.86917 23.66190 7101 ft 250 kts 354°
2026-04-24 16:54 38.88640 23.65936 6820 ft 248 kts 353°
2026-04-24 16:54 38.90359 23.65683 6559 ft 247 kts 353°
2026-04-24 16:54 38.92064 23.65431 6289 ft 245 kts 353°
2026-04-24 16:54 38.93764 23.65180 6003 ft 244 kts 353°
2026-04-24 16:55 38.95426 23.64935 5765 ft 242 kts 353°
2026-04-24 16:55 38.97107 23.64687 5307 ft 248 kts 353°
2026-04-24 16:55 38.98816 23.64436 5056 ft 245 kts 353°
2026-04-24 16:55 39.00516 23.64185 4727 ft 246 kts 353°
2026-04-24 16:56 39.02216 23.63935 4452 ft 245 kts 353°
2026-04-24 16:56 39.03905 23.63686 4198 ft 242 kts 353°
2026-04-24 16:56 39.05555 23.63443 3952 ft 240 kts 353°
2026-04-24 16:56 39.07212 23.63198 3685 ft 239 kts 353°
2026-04-24 16:57 39.08848 23.62957 3570 ft 231 kts 353°
2026-04-24 16:57 39.10422 23.62725 3486 ft 223 kts 353°
2026-04-24 16:57 39.11920 23.62503 3390 ft 216 kts 353°
2026-04-24 16:57 39.13379 23.62288 3333 ft 206 kts 352°
2026-04-24 16:58 39.14715 23.61694 3220 ft 206 kts 321°
2026-04-24 16:58 39.15532 23.60206 3216 ft 209 kts 290°
2026-04-24 16:58 39.15625 23.58273 2749 ft 227 kts 255°
2026-04-24 16:58 39.14845 23.56496 2454 ft 230 kts 233°
2026-04-24 16:59 39.13692 23.55030 2052 ft 237 kts 211°
2026-04-24 16:59 39.12217 23.54264 2047 ft 225 kts 199°
2026-04-24 16:59 39.09341 23.53019 2007 ft 215 kts 199°
2026-04-24 17:00 39.07923 23.52404 2008 ft 213 kts 199°
2026-04-24 17:00 39.05238 23.51157 1993 ft 193 kts 214°
2026-04-24 17:00 39.04430 23.49886 2023 ft 185 kts 255°
2026-04-24 17:01 39.05248 23.47204 2041 ft 164 kts 335°
2026-04-24 17:01 39.06288 23.46651 2079 ft 159 kts 340°
2026-04-24 17:02 39.08345 23.46660 1890 ft 156 kts 15°
2026-04-24 17:02 39.09366 23.47032 1680 ft 147 kts 15°
2026-04-24 17:02 39.10325 23.47376 1467 ft 138 kts 15°
2026-04-24 17:02 39.11222 23.47694 1306 ft 134 kts 15°
2026-04-24 17:03 39.13016 23.48325 957 ft 134 kts 18°
2026-04-24 17:03 39.13914 23.48691 739 ft 134 kts 17°
2026-04-24 17:03 39.14800 23.49051 555 ft 134 kts 18°
2026-04-24 17:04 39.15690 23.49428 359 ft 135 kts 19°
2026-04-24 17:04 39.17409 23.50230 36 ft 120 kts 19°
2026-04-24 17:04 39.17963 23.50481 44 ft 44 kts 19°
2026-04-24 17:05 39.18252 23.50610 54 ft 45 kts 19°
2026-04-24 17:05 39.18392 23.50686 56 ft 2 kts 343°
2026-04-24 17:05 39.18329 23.50641 50 ft 16 kts 200°
2026-04-24 17:06 39.18182 23.50575 52 ft 27 kts 198°
2026-04-24 17:06 39.17933 23.50396 41 ft 11 kts 289°
2026-04-24 17:06 39.17975 23.50325 38 ft 7 kts 289°
2026-04-24 17:07 39.17981 23.50303 37 ft 2 kts 288°
2026-04-24 17:07 39.17987 23.50280 38 ft 2 kts 289°
2026-04-24 17:07 39.17989 23.50272 38 ft 0 kts 289°